| time (UTC) | temp C | wind direction | speed KPH | gust KPH | rain 1hr cm | rain 24hr cm | rain mn cm | humidity % | barometer mb |
| 20260906035711 | 11 | 321 | 0.0 | 0.0 | 0.00 | 0.08 | 0.00 | 88 | 1028.3 |
| 20260906035214 | 11 | 321 | 0.0 | 0.0 | 0.00 | 0.08 | 0.00 | 88 | 1028.2 |
| 20260906034709 | 11 | 321 | 0.0 | 0.0 | 0.00 | 0.08 | 0.00 | 88 | 1028.2 |
| 20260906034208 | 11 | 321 | 0.0 | 0.0 | 0.00 | 0.08 | 0.00 | 88 | 1028.2 |
| 20260906033708 | 11 | 321 | 0.0 | 0.0 | 0.00 | 0.08 | 0.00 | 88 | 1027.3 |
| 20260906033416 | 11 | 321 | 0.0 | 0.0 | 0.00 | 0.08 | 0.00 | 88 | 1028.2 |
| 20260906032637 | 11 | 322 | 0.0 | 0.0 | 0.00 | 0.08 | 0.00 | 88 | 1028.3 |
| 20260906032136 | 11 | 323 | 0.0 | 0.0 | 0.00 | 0.08 | 0.00 | 88 | 1027.3 |
| 20260906031905 | 12 | 323 | 0.0 | 0.0 | 0.00 | 0.08 | 0.00 | 88 | 1028.2 |
| 20260906031139 | 12 | 323 | 0.0 | 0.0 | 0.00 | 0.08 | 0.00 | 88 | 1028.2 |
| 20260906030619 | 12 | 323 | 0.0 | 0.0 | 0.00 | 0.08 | 0.00 | 88 | 1028.2 |
| 20260906030118 | 12 | 323 | 0.0 | 0.0 | 0.00 | 0.08 | 0.00 | 88 | 1028.2 |
| 20260906025606 | 12 | 323 | 0.0 | 0.0 | 0.00 | 0.08 | 0.00 | 87 | 1027.4 |
| 20260906025107 | 12 | 323 | 0.0 | 0.0 | 0.00 | 0.08 | 0.00 | 87 | 1028.2 |
| 20260906024607 | 12 | 323 | 0.0 | 0.0 | 0.00 | 0.08 | 0.00 | 87 | 1027.4 |
| 20260906024106 | 12 | 323 | 0.0 | 0.0 | 0.00 | 0.08 | 0.00 | 87 | 1027.3 |
| 20260906023605 | 12 | 323 | 0.0 | 0.0 | 0.00 | 0.08 | 0.00 | 87 | 1028.2 |
| 20260906023055 | 12 | 323 | 0.0 | 0.0 | 0.00 | 0.08 | 0.00 | 87 | 1028.2 |
| 20260906022537 | 12 | 323 | 0.0 | 0.0 | 0.00 | 0.08 | 0.00 | 86 | 1028.2 |
| 20260906022033 | 12 | 326 | 0.0 | 0.0 | 0.00 | 0.08 | 0.00 | 86 | 1028.2 |
| 20260906021533 | 12 | 326 | 0.0 | 0.0 | 0.00 | 0.08 | 0.00 | 86 | 1028.1 |
| 20260906021308 | 12 | 326 | 0.0 | 0.0 | 0.00 | 0.08 | 0.00 | 85 | 1028.1 |
| 20260906020536 | 12 | 326 | 0.0 | 0.0 | 0.00 | 0.08 | 0.00 | 85 | 1028.1 |
| 20260906020011 | 12 | 326 | 0.0 | 0.0 | 0.00 | 0.08 | 0.00 | 85 | 1028.0 |
| 20260906015517 | 12 | 326 | 0.0 | 0.0 | 0.00 | 0.08 | 0.00 | 85 | 1028.0 |
| 20260906015511 | 12 | 326 | 0.0 | 0.0 | 0.00 | 0.08 | 0.00 | 85 | 1028.0 |
| 20260906014508 | 13 | 326 | 0.0 | 0.0 | 0.00 | 0.08 | 0.00 | 85 | 1028.0 |
| 20260906014008 | 13 | 326 | 0.0 | 0.0 | 0.00 | 0.08 | 0.00 | 85 | 1028.0 |
| 20260906013504 | 13 | 326 | 0.0 | 0.0 | 0.00 | 0.08 | 0.00 | 85 | 1027.9 |
| 20260906013001 | 13 | 326 | 0.0 | 0.0 | 0.00 | 0.08 | 0.00 | 85 | 1027.1 |
| 20260906012437 | 13 | 326 | 0.0 | 0.0 | 0.00 | 0.08 | 0.00 | 85 | 1027.9 |
| 20260906011935 | 13 | 326 | 0.0 | 0.0 | 0.00 | 0.08 | 0.00 | 84 | 1027.8 |
| 20260906011427 | 13 | 326 | 0.0 | 0.0 | 0.00 | 0.08 | 0.00 | 84 | 1027.8 |
| 20260906010922 | 13 | 326 | 0.0 | 0.0 | 0.00 | 0.08 | 0.00 | 84 | 1027.8 |
| 20260906010413 | 13 | 326 | 0.0 | 0.0 | 0.00 | 0.08 | 0.00 | 84 | 1027.7 |
| 20260906005908 | 13 | 326 | 0.0 | 0.0 | 0.00 | 0.08 | 0.00 | 84 | 1027.7 |
| 20260906005407 | 13 | 326 | 0.0 | 3.2 | 0.00 | 0.08 | 0.00 | 84 | 1027.0 |
| 20260906004904 | 13 | 326 | 0.0 | 3.2 | 0.00 | 0.08 | 0.00 | 84 | 1027.7 |
| 20260906004404 | 14 | 307 | 0.0 | 0.0 | 0.00 | 0.08 | 0.00 | 84 | 1027.7 |
| 20260906003906 | 14 | 307 | 0.0 | 0.0 | 0.00 | 0.08 | 0.00 | 84 | 1027.7 |
| 20260906003405 | 14 | 307 | 0.0 | 0.0 | 0.00 | 0.08 | 0.00 | 84 | 1027.7 |
| 20260906003145 | 14 | 307 | 0.0 | 3.2 | 0.00 | 0.08 | 0.00 | 84 | 1027.7 |
| 20260906002350 | 14 | 307 | 0.0 | 3.2 | 0.00 | 0.08 | 0.00 | 84 | 1027.6 |
| 20260906001844 | 14 | 307 | 1.6 | 4.8 | 0.00 | 0.08 | 0.00 | 84 | 1027.6 |
| 20260906001341 | 15 | 308 | 1.6 | 4.8 | 0.00 | 0.08 | 0.00 | 84 | 1027.5 |
| 20260906000836 | 15 | 294 | 1.6 | 4.8 | 0.00 | 0.08 | 0.00 | 83 | 1027.5 |
| 20260906000337 | 15 | 296 | 1.6 | 4.8 | 0.00 | 0.08 | 0.00 | 83 | 1027.4 |
| 20260905235816 | 15 | 312 | 1.6 | 4.8 | 0.00 | 0.08 | 0.00 | 83 | 1027.4 |
| 20260905235313 | 15 | 299 | 1.6 | 4.8 | 0.00 | 0.08 | 0.00 | 83 | 1027.3 |
| 20260905234810 | 15 | 306 | 0.0 | 4.8 | 0.00 | 0.08 | 0.00 | 83 | 1026.4 |
| 20260905234307 | 15 | 306 | 1.6 | 4.8 | 0.00 | 0.08 | 0.00 | 83 | 1027.2 |
| 20260905234237 | 15 | 307 | 1.6 | 4.8 | 0.00 | 0.08 | 0.00 | 83 | 1027.2 |
| 20260905233225 | 15 | 311 | 1.6 | 4.8 | 0.00 | 0.08 | 0.00 | 83 | 1027.2 |
| 20260905232722 | 15 | 340 | 1.6 | 4.8 | 0.00 | 0.08 | 0.00 | 82 | 1027.1 |
| 20260905232442 | 15 | 336 | 0.0 | 3.2 | 0.00 | 0.08 | 0.00 | 82 | 1027.1 |
| 20260905231713 | 15 | 289 | 0.0 | 0.0 | 0.00 | 0.08 | 0.00 | 82 | 1027.0 |
| 20260905231212 | 16 | 288 | 0.0 | 1.6 | 0.00 | 0.08 | 0.00 | 81 | 1027.0 |
| 20260905230707 | 16 | 289 | 0.0 | 4.8 | 0.00 | 0.08 | 0.00 | 82 | 1027.0 |
| 20260905230209 | 16 | 288 | 1.6 | 4.8 | 0.00 | 0.08 | 0.00 | 82 | 1027.1 |
| 20260905225658 | 16 | 292 | 1.6 | 4.8 | 0.00 | 0.08 | 0.00 | 82 | 1027.1 |
| 20260905225158 | 16 | 289 | 1.6 | 4.8 | 0.00 | 0.08 | 0.00 | 82 | 1026.3 |
| 20260905224637 | 16 | 295 | 1.6 | 4.8 | 0.00 | 0.08 | 0.00 | 81 | 1026.9 |
| 20260905224135 | 16 | 299 | 3.2 | 8.0 | 0.00 | 0.08 | 0.00 | 81 | 1026.8 |
| 20260905223636 | 16 | 318 | 1.6 | 8.0 | 0.00 | 0.08 | 0.00 | 81 | 1026.8 |
| 20260905223117 | 16 | 291 | 1.6 | 6.4 | 0.00 | 0.08 | 0.00 | 82 | 1026.5 |
| 20260905222613 | 16 | 297 | 0.0 | 0.0 | 0.00 | 0.08 | 0.00 | 82 | 1026.5 |
| 20260905222112 | 16 | 289 | 0.0 | 0.0 | 0.00 | 0.08 | 0.00 | 82 | 1026.5 |
| 20260905221842 | 16 | 288 | 0.0 | 0.0 | 0.00 | 0.08 | 0.00 | 82 | 1026.5 |
| 20260905221109 | 16 | 301 | 0.0 | 0.0 | 0.00 | 0.08 | 0.00 | 82 | 1026.0 |
| 20260905220538 | 17 | 301 | 0.0 | 0.0 | 0.00 | 0.08 | 0.00 | 82 | 1026.4 |
| 20260905220035 | 17 | 301 | 0.0 | 0.0 | 0.00 | 0.08 | 0.00 | 81 | 1026.3 |
| 20260905215535 | 17 | 301 | 0.0 | 0.0 | 0.00 | 0.08 | 0.08 | 81 | 1026.3 |
| 20260905215027 | 17 | 301 | 0.0 | 0.0 | 0.00 | 0.08 | 0.08 | 81 | 1026.2 |
| 20260905214520 | 17 | 311 | 0.0 | 0.0 | 0.00 | 0.08 | 0.08 | 80 | 1026.2 |
| 20260905214015 | 17 | 316 | 0.0 | 0.0 | 0.00 | 0.08 | 0.08 | 79 | 1026.2 |
| 20260905213512 | 17 | 312 | 0.0 | 0.0 | 0.00 | 0.08 | 0.08 | 79 | 1026.1 |
| 20260905213009 | 17 | 310 | 0.0 | 0.0 | 0.00 | 0.08 | 0.08 | 79 | 1025.6 |
| 20260905212509 | 17 | 310 | 0.0 | 0.0 | 0.00 | 0.08 | 0.08 | 80 | 1026.0 |
| 20260905212237 | 17 | 310 | 0.0 | 0.0 | 0.00 | 0.08 | 0.08 | 80 | 1025.5 |
| 20260905211438 | 17 | 310 | 0.0 | 0.0 | 0.00 | 0.08 | 0.08 | 80 | 1025.9 |
| 20260905210939 | 17 | 310 | 0.0 | 0.0 | 0.00 | 0.08 | 0.08 | 80 | 1025.9 |
| 20260905210438 | 17 | 310 | 0.0 | 0.0 | 0.00 | 0.08 | 0.08 | 80 | 1025.5 |
| 20260905205959 | 18 | 310 | 0.0 | 0.0 | 0.00 | 0.08 | 0.08 | 80 | 1025.9 |
| 20260905205951 | 17 | 310 | 0.0 | 0.0 | 0.00 | 0.08 | 0.08 | 80 | 1025.8 |
| 20260905204936 | 18 | 310 | 0.0 | 0.0 | 0.00 | 0.08 | 0.08 | 80 | 1025.8 |
| 20260905204409 | 18 | 310 | 0.0 | 0.0 | 0.00 | 0.08 | 0.08 | 80 | 1025.7 |
| 20260905204148 | 18 | 293 | 0.0 | 0.0 | 0.00 | 0.08 | 0.08 | 80 | 1025.8 |
| 20260905203915 | 18 | 310 | 0.0 | 0.0 | 0.00 | 0.08 | 0.08 | 80 | 1025.8 |
| 20260905202907 | 18 | 290 | 0.0 | 0.0 | 0.00 | 0.08 | 0.08 | 80 | 1025.8 |
| 20260905202406 | 18 | 290 | 0.0 | 0.0 | 0.00 | 0.08 | 0.08 | 79 | 1025.8 |
| 20260905201906 | 18 | 290 | 0.0 | 0.0 | 0.00 | 0.08 | 0.08 | 79 | 1025.7 |
| 20260905201407 | 18 | 290 | 0.0 | 0.0 | 0.00 | 0.08 | 0.08 | 78 | 1025.3 |
| 20260905200907 | 18 | 290 | 0.0 | 0.0 | 0.00 | 0.08 | 0.08 | 78 | 1025.6 |
| 20260905200405 | 18 | 290 | 0.0 | 0.0 | 0.00 | 0.08 | 0.08 | 78 | 1025.5 |
| 20260905195907 | 18 | 290 | 0.0 | 0.0 | 0.00 | 0.08 | 0.08 | 78 | 1025.5 |
| 20260905195408 | 18 | 290 | 0.0 | 0.0 | 0.00 | 0.08 | 0.08 | 77 | 1025.2 |
| 20260905194907 | 18 | 290 | 0.0 | 0.0 | 0.00 | 0.08 | 0.08 | 77 | 1025.4 |
| 20260905194409 | 18 | 290 | 0.0 | 0.0 | 0.00 | 0.08 | 0.08 | 77 | 1025.4 |
| 20260905193907 | 18 | 290 | 0.0 | 0.0 | 0.00 | 0.08 | 0.08 | 77 | 1025.3 |
| 20260905193407 | 18 | 290 | 0.0 | 0.0 | 0.00 | 0.08 | 0.08 | 77 | 1024.9 |
| 20260905193130 | 19 | 248 | 1.6 | 8.0 | 0.00 | 0.08 | 0.08 | 77 | 1025.2 |
| 20260905192358 | 19 | 333 | 1.6 | 8.0 | 0.00 | 0.08 | 0.08 | 77 | 1025.0 |
| 20260905191851 | 19 | 328 | 0.0 | 0.0 | 0.00 | 0.08 | 0.08 | 76 | 1024.9 |
| 20260905191841 | 19 | 279 | 0.0 | 0.0 | 0.00 | 0.08 | 0.08 | 76 | 1025.1 |
| 20260905191107 | 19 | 280 | 0.0 | 0.0 | 0.00 | 0.08 | 0.08 | 75 | 1025.2 |
| 20260905190342 | 20 | 283 | 0.0 | 0.0 | 0.00 | 0.08 | 0.08 | 74 | 1025.1 |
| 20260905190334 | 19 | 279 | 0.0 | 0.0 | 0.00 | 0.08 | 0.08 | 74 | 1025.1 |
| 20260905185319 | 20 | 283 | 0.0 | 0.0 | 0.00 | 0.08 | 0.08 | 74 | 1025.0 |
| 20260905184809 | 20 | 283 | 0.0 | 0.0 | 0.00 | 0.08 | 0.08 | 74 | 1025.0 |
| 20260905184315 | 20 | 316 | 0.0 | 0.0 | 0.00 | 0.08 | 0.08 | 74 | 1024.9 |
| 20260905183809 | 20 | 342 | 0.0 | 0.0 | 0.00 | 0.08 | 0.08 | 73 | 1024.8 |
| 20260905183537 | 20 | 317 | 0.0 | 0.0 | 0.00 | 0.08 | 0.08 | 73 | 1024.7 |
| 20260905182819 | 20 | 318 | 0.0 | 0.0 | 0.00 | 0.08 | 0.08 | 72 | 1024.7 |
| 20260905182307 | 20 | 326 | 0.0 | 0.0 | 0.00 | 0.08 | 0.08 | 72 | 1024.6 |
| 20260905181801 | 20 | 330 | 0.0 | 0.0 | 0.00 | 0.08 | 0.08 | 71 | 1024.5 |
| 20260905181537 | 21 | 291 | 0.0 | 3.2 | 0.00 | 0.08 | 0.08 | 71 | 1024.5 |
| 20260905180736 | 21 | 325 | 1.6 | 4.8 | 0.00 | 0.08 | 0.08 | 71 | 1024.3 |
| 20260905180235 | 21 | 325 | 1.6 | 4.8 | 0.00 | 0.08 | 0.08 | 71 | 1024.3 |
| 20260905175735 | 21 | 193 | 0.0 | 4.8 | 0.00 | 0.08 | 0.08 | 70 | 1024.3 |
| 20260905175236 | 21 | 193 | 1.6 | 4.8 | 0.00 | 0.08 | 0.08 | 70 | 1024.2 |
| 20260905174736 | 21 | 193 | 1.6 | 4.8 | 0.00 | 0.08 | 0.08 | 70 | 1024.1 |
| 20260905174232 | 21 | 193 | 3.2 | 8.0 | 0.00 | 0.08 | 0.08 | 70 | 1024.0 |
| 20260905173731 | 21 | 193 | 3.2 | 8.0 | 0.00 | 0.08 | 0.08 | 69 | 1023.9 |
| 20260905173230 | 21 | 204 | 3.2 | 8.0 | 0.00 | 0.08 | 0.08 | 69 | 1023.8 |
| 20260905172713 | 21 | 199 | 3.2 | 6.4 | 0.00 | 0.08 | 0.08 | 69 | 1023.8 |
| 20260905172209 | 22 | 210 | 3.2 | 9.7 | 0.00 | 0.08 | 0.08 | 69 | 1023.7 |
| 20260905171913 | 22 | 210 | 1.6 | 9.7 | 0.00 | 0.08 | 0.08 | 68 | 1023.8 |
| 20260905171140 | 22 | 195 | 0.0 | 6.4 | 0.00 | 0.08 | 0.08 | 68 | 1023.7 |
| 20260905170641 | 22 | 196 | 1.6 | 6.4 | 0.00 | 0.08 | 0.08 | 68 | 1023.7 |
| 20260905170137 | 22 | 222 | 1.6 | 8.0 | 0.00 | 0.08 | 0.08 | 67 | 1023.7 |
| 20260905165640 | 22 | 220 | 3.2 | 8.0 | 0.00 | 0.08 | 0.08 | 67 | 1023.7 |
| 20260905165115 | 22 | 190 | 3.2 | 8.0 | 0.00 | 0.08 | 0.08 | 66 | 1023.6 |
| 20260905164614 | 22 | 179 | 3.2 | 8.0 | 0.00 | 0.08 | 0.08 | 66 | 1023.6 |
| 20260905164109 | 22 | 250 | 3.2 | 8.0 | 0.00 | 0.08 | 0.08 | 66 | 1023.6 |
| 20260905163607 | 22 | 219 | 3.2 | 9.7 | 0.00 | 0.08 | 0.08 | 66 | 1023.6 |
| 20260905163103 | 22 | 196 | 4.8 | 9.7 | 0.00 | 0.08 | 0.08 | 65 | 1023.5 |
| 20260905162556 | 23 | 213 | 4.8 | 9.7 | 0.00 | 0.08 | 0.08 | 65 | 1023.5 |
| 20260905162054 | 23 | 204 | 4.8 | 11.3 | 0.00 | 0.08 | 0.08 | 64 | 1023.5 |
| 20260905161809 | 23 | 193 | 3.2 | 11.3 | 0.00 | 0.08 | 0.08 | 65 | 1023.3 |
| 20260905161035 | 23 | 212 | 4.8 | 11.3 | 0.00 | 0.08 | 0.08 | 65 | 1023.3 |
| 20260905160812 | 23 | 201 | 4.8 | 11.3 | 0.00 | 0.08 | 0.08 | 64 | 1023.2 |
| 20260905160019 | 23 | 205 | 4.8 | 12.9 | 0.00 | 0.08 | 0.08 | 64 | 1023.2 |
| 20260905155514 | 23 | 200 | 3.2 | 12.9 | 0.00 | 0.08 | 0.08 | 62 | 1023.2 |
| 20260905155010 | 23 | 334 | 1.6 | 8.0 | 0.00 | 0.08 | 0.08 | 61 | 1023.2 |
| 20260905154748 | 23 | 328 | 1.6 | 9.7 | 0.00 | 0.08 | 0.08 | 61 | 1023.2 |
| 20260905154247 | 23 | 293 | 3.2 | 9.7 | 0.00 | 0.08 | 0.08 | 60 | 1023.3 |
| 20260905153508 | 23 | 272 | 4.8 | 9.7 | 0.00 | 0.08 | 0.08 | 60 | 1023.3 |
| 20260905153006 | 23 | 248 | 4.8 | 11.3 | 0.00 | 0.08 | 0.08 | 60 | 1023.3 |
| 20260905152506 | 23 | 232 | 4.8 | 11.3 | 0.00 | 0.08 | 0.08 | 60 | 1023.2 |
| 20260905152008 | 23 | 253 | 4.8 | 11.3 | 0.00 | 0.08 | 0.08 | 60 | 1023.5 |
| 20260905151505 | 23 | 257 | 4.8 | 9.7 | 0.00 | 0.08 | 0.08 | 59 | 1023.5 |
| 20260905151003 | 23 | 250 | 4.8 | 9.7 | 0.00 | 0.08 | 0.08 | 59 | 1023.3 |
| 20260905150503 | 24 | 232 | 3.2 | 8.0 | 0.00 | 0.08 | 0.08 | 59 | 1023.2 |
| 20260905150004 | 23 | 200 | 3.2 | 9.7 | 0.00 | 0.08 | 0.08 | 59 | 1023.3 |
| 20260905145453 | 23 | 268 | 3.2 | 9.7 | 0.00 | 0.08 | 0.08 | 58 | 1023.3 |
| 20260905144946 | 23 | 241 | 3.2 | 12.9 | 0.00 | 0.08 | 0.08 | 58 | 1023.3 |
| 20260905144447 | 23 | 247 | 3.2 | 12.9 | 0.00 | 0.08 | 0.08 | 57 | 1023.6 |
| 20260905143948 | 24 | 301 | 3.2 | 11.3 | 0.00 | 0.08 | 0.08 | 57 | 1023.5 |
| 20260905143444 | 24 | 262 | 4.8 | 16.1 | 0.00 | 0.08 | 0.08 | 57 | 1023.5 |
| 20260905142944 | 24 | 303 | 4.8 | 16.1 | 0.00 | 0.08 | 0.08 | 56 | 1023.7 |
| 20260905142438 | 24 | 249 | 4.8 | 12.9 | 0.00 | 0.08 | 0.08 | 54 | 1023.8 |
| 20260905141937 | 25 | 253 | 4.8 | 12.9 | 0.00 | 0.08 | 0.08 | 55 | 1023.6 |
| 20260905141436 | 25 | 210 | 4.8 | 12.9 | 0.00 | 0.08 | 0.08 | 55 | 1023.5 |
| 20260905140938 | 25 | 257 | 4.8 | 12.9 | 0.00 | 0.08 | 0.08 | 55 | 1023.5 |
| 20260905140714 | 24 | 204 | 6.4 | 12.9 | 0.00 | 0.08 | 0.08 | 56 | 1023.5 |
| 20260905135937 | 24 | 325 | 6.4 | 16.1 | 0.03 | 0.08 | 0.08 | 56 | 1023.7 |
| 20260905135434 | 25 | 314 | 6.4 | 16.1 | 0.03 | 0.08 | 0.08 | 55 | 1023.7 |
| 20260905134935 | 25 | 272 | 4.8 | 8.0 | 0.03 | 0.08 | 0.08 | 55 | 1023.9 |
| 20260905134718 | 24 | 341 | 3.2 | 9.7 | 0.03 | 0.08 | 0.08 | 57 | 1023.7 |
| 20260905133937 | 24 | 264 | 4.8 | 16.1 | 0.03 | 0.08 | 0.08 | 58 | 1023.9 |
| 20260905133715 | 24 | 273 | 4.8 | 16.1 | 0.03 | 0.08 | 0.08 | 58 | 1024.0 |
| 20260905132936 | 23 | 256 | 6.4 | 16.1 | 0.03 | 0.08 | 0.08 | 61 | 1023.8 |
| 20260905132409 | 23 | 320 | 8.0 | 17.7 | 0.03 | 0.08 | 0.08 | 61 | 1023.9 |
| 20260905131909 | 23 | 310 | 8.0 | 17.7 | 0.03 | 0.08 | 0.08 | 61 | 1023.9 |
| 20260905131408 | 23 | 292 | 6.4 | 14.5 | 0.03 | 0.08 | 0.08 | 60 | 1023.8 |
| 20260905130908 | 23 | 316 | 6.4 | 20.9 | 0.03 | 0.08 | 0.08 | 61 | 1023.8 |
| 20260905130406 | 23 | 330 | 6.4 | 20.9 | 0.03 | 0.08 | 0.08 | 60 | 1023.9 |
| 20260905125907 | 23 | 276 | 6.4 | 12.9 | 0.00 | 0.05 | 0.05 | 59 | 1023.8 |
| 20260905125405 | 23 | 303 | 6.4 | 20.9 | 0.00 | 0.05 | 0.05 | 60 | 1023.9 |
| 20260905125150 | 24 | 295 | 4.8 | 9.7 | 0.00 | 0.05 | 0.05 | 59 | 1023.9 |
| 20260905124911 | 24 | 317 | 4.8 | 20.9 | 0.00 | 0.05 | 0.05 | 59 | 1023.9 |
| 20260905123900 | 24 | 311 | 4.8 | 9.7 | 0.00 | 0.05 | 0.05 | 60 | 1024.0 |
| 20260905123400 | 23 | 270 | 4.8 | 14.5 | 0.00 | 0.05 | 0.05 | 60 | 1024.0 |
| 20260905122853 | 23 | 305 | 6.4 | 16.1 | 0.00 | 0.05 | 0.05 | 60 | 1024.1 |
| 20260905122631 | 23 | 271 | 4.8 | 16.1 | 0.00 | 0.05 | 0.05 | 61 | 1024.2 |
| 20260905121852 | 23 | 246 | 6.4 | 17.7 | 0.00 | 0.05 | 0.05 | 62 | 1024.3 |
| 20260905121353 | 23 | 270 | 6.4 | 17.7 | 0.00 | 0.05 | 0.05 | 63 | 1024.3 |
| 20260905120850 | 23 | 275 | 4.8 | 14.5 | 0.00 | 0.05 | 0.05 | 63 | 1024.4 |
| 20260905120352 | 22 | 320 | 6.4 | 16.1 | 0.00 | 0.05 | 0.05 | 64 | 1024.4 |
| 20260905120118 | 22 | 303 | 6.4 | 16.1 | 0.00 | 0.05 | 0.05 | 63 | 1024.5 |
| 20260905115349 | 22 | 328 | 6.4 | 16.1 | 0.00 | 0.05 | 0.05 | 64 | 1024.7 |
| 20260905114849 | 22 | 297 | 6.4 | 14.5 | 0.00 | 0.05 | 0.05 | 63 | 1024.6 |
| 20260905114626 | 22 | 278 | 6.4 | 14.5 | 0.00 | 0.05 | 0.05 | 64 | 1024.5 |
| 20260905113839 | 22 | 340 | 4.8 | 12.9 | 0.00 | 0.05 | 0.05 | 63 | 1024.7 |
| 20260905113339 | 23 | 308 | 4.8 | 14.5 | 0.00 | 0.05 | 0.05 | 63 | 1024.7 |
| 20260905112837 | 23 | 282 | 4.8 | 14.5 | 0.00 | 0.05 | 0.05 | 62 | 1024.6 |
| 20260905112338 | 23 | 354 | 3.2 | 9.7 | 0.00 | 0.05 | 0.05 | 63 | 1024.7 |
| 20260905112105 | 22 | 206 | 3.2 | 14.5 | 0.00 | 0.05 | 0.05 | 64 | 1024.6 |
| 20260905111327 | 22 | 343 | 4.8 | 14.5 | 0.00 | 0.05 | 0.05 | 64 | 1024.6 |
| 20260905110826 | 22 | 290 | 4.8 | 12.9 | 0.00 | 0.05 | 0.05 | 65 | 1024.6 |
| 20260905110323 | 22 | 306 | 3.2 | 12.9 | 0.00 | 0.05 | 0.05 | 65 | 1024.5 |
| 20260905105809 | 22 | 277 | 3.2 | 12.9 | 0.00 | 0.05 | 0.05 | 65 | 1024.6 |
| 20260905105306 | 22 | 212 | 4.8 | 12.9 | 0.00 | 0.05 | 0.05 | 65 | 1024.5 |
| 20260905105039 | 22 | 287 | 4.8 | 12.9 | 0.00 | 0.05 | 0.05 | 68 | 1024.6 |
| 20260905104545 | 22 | 204 | 3.2 | 9.7 | 0.00 | 0.05 | 0.05 | 70 | 1024.6 |
| 20260905103808 | 21 | 222 | 3.2 | 6.4 | 0.00 | 0.05 | 0.05 | 69 | 1024.5 |
| 20260905103549 | 21 | 202 | 3.2 | 11.3 | 0.00 | 0.05 | 0.05 | 72 | 1024.5 |
| 20260905102807 | 20 | 156 | 4.8 | 11.3 | 0.00 | 0.05 | 0.05 | 73 | 1024.6 |
| 20260905102306 | 20 | 225 | 3.2 | 8.0 | 0.00 | 0.05 | 0.05 | 72 | 1024.6 |
| 20260905101801 | 20 | 195 | 1.6 | 9.7 | 0.00 | 0.05 | 0.05 | 73 | 1024.6 |
| 20260905101249 | 20 | 326 | 3.2 | 11.3 | 0.00 | 0.05 | 0.05 | 73 | 1024.6 |
| 20260905100748 | 20 | 179 | 4.8 | 11.3 | 0.00 | 0.05 | 0.05 | 73 | 1024.7 |
| 20260905100248 | 20 | 188 | 4.8 | 9.7 | 0.00 | 0.05 | 0.05 | 74 | 1024.6 |
| 20260905095738 | 20 | 199 | 4.8 | 12.9 | 0.00 | 0.05 | 0.05 | 72 | 1024.6 |
| 20260905095235 | 21 | 192 | 1.6 | 12.9 | 0.00 | 0.05 | 0.05 | 72 | 1024.7 |
| 20260905094736 | 21 | 193 | 0.0 | 8.0 | 0.00 | 0.05 | 0.05 | 71 | 1024.8 |
| 20260905094237 | 21 | 180 | 0.0 | 3.2 | 0.00 | 0.05 | 0.05 | 72 | 1024.8 |
| 20260905093736 | 20 | 318 | 1.6 | 3.2 | 0.00 | 0.05 | 0.05 | 73 | 1024.8 |
| 20260905093238 | 20 | 322 | 1.6 | 9.7 | 0.00 | 0.05 | 0.05 | 73 | 1024.7 |
| 20260905092735 | 20 | 319 | 3.2 | 9.7 | 0.00 | 0.05 | 0.05 | 75 | 1024.8 |
| 20260905092220 | 20 | 198 | 3.2 | 6.4 | 0.00 | 0.05 | 0.05 | 77 | 1024.8 |
| 20260905091715 | 19 | 200 | 1.6 | 8.0 | 0.00 | 0.05 | 0.05 | 79 | 1024.8 |
| 20260905091207 | 18 | 206 | 3.2 | 8.0 | 0.00 | 0.05 | 0.05 | 81 | 1024.9 |
| 20260905090656 | 18 | 201 | 3.2 | 8.0 | 0.00 | 0.05 | 0.05 | 80 | 1024.1 |
| 20260905090157 | 18 | 199 | 1.6 | 8.0 | 0.00 | 0.05 | 0.05 | 82 | 1024.0 |
| 20260905085652 | 18 | 237 | 0.0 | 1.6 | 0.00 | 0.05 | 0.05 | 87 | 1024.8 |
| 20260905085148 | 17 | 229 | 1.6 | 6.4 | 0.00 | 0.05 | 0.05 | 89 | 1023.8 |
| 20260905084639 | 17 | 350 | 0.0 | 6.4 | 0.00 | 0.05 | 0.05 | 89 | 1024.8 |
| 20260905084128 | 16 | 206 | 4.8 | 9.7 | 0.00 | 0.05 | 0.05 | 88 | 1023.7 |
| 20260905084114 | 16 | 206 | 3.2 | 8.0 | 0.00 | 0.05 | 0.05 | 89 | 1023.7 |
| 20260905083054 | 16 | 210 | 3.2 | 9.7 | 0.00 | 0.05 | 0.05 | 88 | 1024.7 |
| 20260905082832 | 16 | 206 | 3.2 | 9.7 | 0.00 | 0.05 | 0.05 | 88 | 1024.7 |
| 20260905082318 | 16 | 201 | 3.2 | 9.7 | 0.00 | 0.05 | 0.05 | 89 | 1024.5 |
| 20260905081549 | 16 | 197 | 1.6 | 6.4 | 0.00 | 0.05 | 0.05 | 90 | 1024.4 |
| 20260905081055 | 16 | 196 | 0.0 | 6.4 | 0.00 | 0.05 | 0.05 | 90 | 1023.3 |
| 20260905080550 | 16 | 156 | 0.0 | 4.8 | 0.00 | 0.05 | 0.05 | 90 | 1023.0 |
| 20260905080100 | 16 | 306 | 0.0 | 0.0 | 0.00 | 0.05 | 0.05 | 90 | 1024.6 |
| 20260905075536 | 16 | 306 | 0.0 | 1.6 | 0.00 | 0.05 | 0.05 | 89 | 1024.6 |
| 20260905075036 | 16 | 328 | 1.6 | 6.4 | 0.00 | 0.05 | 0.05 | 90 | 1024.4 |
| 20260905074805 | 16 | 328 | 0.0 | 6.4 | 0.00 | 0.05 | 0.05 | 89 | 1023.5 |
| 20260905074036 | 15 | 204 | 0.0 | 1.6 | 0.00 | 0.05 | 0.05 | 89 | 1024.4 |
| 20260905073529 | 16 | 204 | 1.6 | 6.4 | 0.00 | 0.05 | 0.05 | 89 | 1024.6 |
| 20260905073011 | 16 | 195 | 1.6 | 6.4 | 0.00 | 0.05 | 0.05 | 89 | 1024.3 |
| 20260905072510 | 16 | 197 | 1.6 | 6.4 | 0.00 | 0.05 | 0.05 | 89 | 1024.3 |
| 20260905072235 | 16 | 169 | 1.6 | 6.4 | 0.03 | 0.05 | 0.05 | 89 | 1024.1 |
| 20260905071449 | 16 | 177 | 1.6 | 4.8 | 0.05 | 0.05 | 0.05 | 89 | 1022.7 |
| 20260905071221 | 16 | 187 | 3.2 | 11.3 | 0.05 | 0.05 | 0.05 | 89 | 1023.8 |
| 20260905070437 | 15 | 191 | 3.2 | 11.3 | 0.05 | 0.05 | 0.05 | 89 | 1023.7 |
| 20260905070138 | 15 | 175 | 3.2 | 8.0 | 0.05 | 0.05 | 0.05 | 89 | 1022.5 |
| 20260905065401 | 15 | 177 | 4.8 | 8.0 | 0.05 | 0.05 | 0.05 | 88 | 1023.7 |
| 20260905064855 | 15 | 206 | 4.8 | 8.0 | 0.05 | 0.05 | 0.05 | 87 | 1023.5 |
| 20260905064844 | 15 | 199 | 4.8 | 8.0 | 0.05 | 0.05 | 0.05 | 87 | 1023.5 |
| 20260905063842 | 16 | 197 | 4.8 | 14.5 | 0.05 | 0.05 | 0.05 | 86 | 1023.5 |
| 20260905063342 | 16 | 208 | 3.2 | 14.5 | 0.05 | 0.05 | 0.05 | 85 | 1023.6 |
| 20260905063113 | 16 | 197 | 1.6 | 6.4 | 0.05 | 0.05 | 0.05 | 84 | 1023.5 |
| 20260905062341 | 16 | 297 | 1.6 | 4.8 | 0.05 | 0.05 | 0.05 | 83 | 1023.3 |
| 20260905062109 | 16 | 297 | 1.6 | 4.8 | 0.03 | 0.03 | 0.03 | 81 | 1022.4 |
| 20260905061610 | 17 | 302 | 0.0 | 3.2 | 0.03 | 0.03 | 0.03 | 80 | 1023.6 |
| 20260905061115 | 17 | 301 | 0.0 | 3.2 | 0.03 | 0.03 | 0.03 | 79 | 1023.5 |
| 20260905060339 | 17 | 302 | 0.0 | 3.2 | 0.00 | 0.00 | 0.00 | 76 | 1023.6 |
| 20260905055852 | 17 | 302 | 1.6 | 4.8 | 0.00 | 0.00 | 0.00 | 75 | 1022.4 |
| 20260905055841 | 17 | 302 | 1.6 | 4.8 | 0.00 | 0.00 | 0.00 | 76 | 1022.7 |
| 20260905055313 | 17 | 359 | 0.0 | 3.2 | 0.00 | 0.00 | 0.00 | 74 | 1022.1 |
| 20260905054310 | 17 | 359 | 1.6 | 3.2 | 0.00 | 0.00 | 0.00 | 74 | 1023.0 |
| 20260905053808 | 17 | 359 | 1.6 | 8.0 | 0.00 | 0.00 | 0.00 | 74 | 1022.9 |
| 20260905053256 | 17 | 359 | 1.6 | 8.0 | 0.00 | 0.00 | 0.00 | 74 | 1022.0 |
| 20260905053044 | 17 | 8 | 4.8 | 8.0 | 0.00 | 0.00 | 0.00 | 73 | 1021.3 |
| 20260905053036 | 17 | 18 | 3.2 | 8.0 | 0.00 | 0.00 | 0.00 | 74 | 1021.8 |
| 20260905051752 | 17 | 338 | 4.8 | 19.3 | 0.00 | 0.00 | 0.00 | 73 | 1022.5 |
| 20260905051240 | 17 | 316 | 4.8 | 19.3 | 0.00 | 0.00 | 0.00 | 74 | 1021.9 |
| 20260905050740 | 17 | 346 | 4.8 | 12.9 | 0.00 | 0.00 | 0.00 | 74 | 1021.8 |
| 20260905050238 | 18 | 4 | 4.8 | 14.5 | 0.00 | 0.00 | 0.00 | 75 | 1021.8 |
| 20260905050001 | 18 | 21 | 3.2 | 14.5 | 0.00 | 0.00 | 0.00 | 74 | 1021.9 |
| 20260905045232 | 18 | 19 | 6.4 | 20.9 | 0.00 | 0.00 | 0.00 | 73 | 1022.0 |
| 20260905044717 | 18 | 24 | 6.4 | 20.9 | 0.00 | 0.00 | 0.00 | 72 | 1021.7 |
| 20260905044225 | 19 | 316 | 6.4 | 17.7 | 0.00 | 0.00 | 0.00 | 72 | 1021.7 |
| 20260905043710 | 19 | 302 | 8.0 | 16.1 | 0.00 | 0.00 | 0.00 | 70 | 1020.7 |
| 20260905043441 | 20 | 291 | 11.3 | 27.4 | 0.00 | 0.00 | 0.00 | 69 | 1021.4 |
| 20260905042711 | 20 | 346 | 11.3 | 27.4 | 0.00 | 0.00 | 0.00 | 65 | 1021.6 |
| 20260905042443 | 20 | 320 | 9.7 | 22.5 | 0.00 | 0.00 | 0.00 | 62 | 1020.8 |
| 20260905041710 | 20 | 4 | 9.7 | 22.5 | 0.00 | 0.00 | 0.00 | 61 | 1020.7 |
| 20260905041138 | 21 | 332 | 9.7 | 24.1 | 0.00 | 0.00 | 0.00 | 60 | 1020.5 |
| 20260905040640 | 21 | 31 | 6.4 | 24.1 | 0.00 | 0.00 | 0.00 | 60 | 1020.4 |
| 20260905040135 | 21 | 4 | 8.0 | 17.7 | 0.00 | 0.00 | 0.00 | 60 | 1020.1 |